Location: Pordenone
(45.9640°N, 12.6580°E)
Time: 17:42:26
(UTC+02:00)

ISS - Pass Details

Date: 19 May 2021
Orbit: 417 x 422 km, 51.6° (Epoch: 18 June)

Event Time Altitude Azimuth Distance (km) Brightness Sun altitude
Rises 00:29:38 0° 292° (WNW) 2,370 0.5 -23.8°
Reaches altitude 10° 00:31:52 10° 303° (WNW) 1,506 -0.4 -23.8°
Maximum altitude 00:34:58 32° 9° (N) 741 -2.0 -23.9°
Enters shadow 00:36:03 26° 46° (NE) 870 -1.9 -23.9°
